Dewpoint
49 51 56 59 62 64 65 66 67 67 67 67 66 66 66 66 66 66 66 65 65 64 64 63 60 55 53 51 47 45 42 37
35 35 50 57 60 63 64 64 67 67 66 65 65 64 65 65 66 66 65 65 65 64 63 56 55 52 50 46 41 38 36 38
27 30 38 56 59 62 64 64 66 66 66 66 65 64 65 65 66 66 66 65 65 62 57 54 53 49 45 42 39 38 38 40
25 27 34 54 58 62 63 64 64 65 65 65 65 65 65 64 65 64 64 63 62 58 52 53 51 47 42 39 36 34 34 38
25 26 31 54 59 62 63 64 64 64 64 64 64 63 63 64 64 63 61 57 55 53 50 52 48 45 40 39 39 37 35 34
25 26 27 52 59 62 63 64 64 64 64 64 64 63 63 63 62 60 58 52 51 51 47 50 45 42 41 40 40 38 39 38
23 25 27 41 60 62 63 64 64 65 64 64 64 63 63 61 60 57 54 51 50 48 45 46 43 41 41 40 40 41 41 40
21 22 25 35 57 62 63 63 64 65 64 64 64 63 62 60 58 55 51 49 48 46 44 43 41 41 42 42 42 41 41 40
21 22 23 32 52 63 63 63 64 65 64 64 64 63 60 59 56 53 51 49 48 47 43 42 42 43 42 42 41 41 43 43
23 24 25 29 47 62 63 63 64 65 64 64 64 61 59 57 54 52 50 50 48 46 43 43 43 42 42 41 41 42 41 42
31 31 31 30 44 59 63 64 64 65 65 64 62 59 57 55 52 51 50 49 46 45 44 42 42 42 42 41 41 42 41 40
32 33 32 34 49 58 63 64 64 65 64 63 62 59 56 54 52 51 50 48 46 44 43 42 42 41 41 40 40 40 39 40
35 35 34 48 56 60 63 64 64 64 64 63 61 60 55 53 52 51 50 46 45 43 42 42 41 41 40 40 39 40 39 39
32 43 52 54 60 62 63 64 64 64 63 62 60 56 54 52 51 51 49 46 44 42 41 41 40 41 40 40 40 39 39 39
31 36 56 59 61 62 62 63 62 59 58 57 55 54 53 51 49 49 47 45 44 42 41 41 42 41 41 41 39 38 38 38
32 36 53 58 59 59 58 56 56 55 55 54 53 51 51 48 46 45 45 44 43 44 43 43 43 42 40 38 37 37 37 36
32 36 54 57 57 57 56 54 53 54 53 52 50 48 47 46 45 44 43 42 42 43 43 42 40 37 37 36 37 36 37 34
33 33 39 54 57 56 54 53 51 51 51 48 48 47 46 44 43 41 40 41 42 42 41 39 38 36 36 36 35 36 35 34
32 33 35 44 56 56 54 51 49 50 48 46 45 45 45 43 41 40 41 42 42 41 39 38 36 35 36 36 35 35 35 34
Wind_Speed
35 31 35 31 33 34 34 30 29 27 20 19 17 18 18 16 17 15 17 16 18 16 14 13 11 14 13 9 10 9 5 3
29 28 33 36 31 29 32 32 29 27 24 26 24 26 20 16 15 17 19 18 18 18 16 15 15 17 14 13 9 9 7 3
22 29 25 33 35 33 30 32 30 30 28 25 18 19 11 15 15 19 20 20 19 19 18 16 18 16 14 11 10 6 3 5
23 21 22 33 32 31 33 34 34 32 27 21 13 13 10 14 19 20 18 19 20 20 20 20 19 17 17 12 12 9 8 4
24 25 19 28 36 34 35 33 34 32 29 28 29 32 27 20 22 16 19 19 19 20 21 21 20 17 18 13 11 10 9 9
27 28 27 30 33 35 36 32 31 32 33 32 30 29 23 16 17 23 21 16 17 20 21 21 21 18 19 19 14 12 7 7
24 25 26 23 29 31 31 33 34 32 34 33 34 32 27 24 23 24 21 18 15 17 19 21 21 21 20 18 15 14 11 9
25 25 22 22 28 33 33 34 35 32 34 33 34 32 31 31 29 26 24 21 19 19 19 20 20 20 20 18 17 14 12 10
27 27 28 24 29 33 36 37 34 33 35 33 31 28 25 25 27 25 25 24 22 18 19 20 21 21 20 18 15 12 11 11
24 26 29 24 28 35 40 38 35 35 37 31 29 28 28 26 26 26 25 20 20 21 21 20 20 20 20 19 16 14 12 9
26 27 27 27 29 34 35 36 40 40 36 31 26 28 27 25 26 30 30 27 26 23 22 21 19 18 18 18 14 11 14 9
26 33 29 23 23 25 31 31 32 32 33 28 29 27 26 25 27 28 28 27 28 28 24 21 20 19 17 16 15 13 14 11
25 33 31 15 24 24 29 29 31 31 30 28 26 24 23 26 26 26 26 29 28 28 26 23 20 17 16 17 16 14 15 12
27 27 22 18 21 23 23 26 27 26 28 28 25 24 27 26 25 24 24 27 25 28 28 27 23 19 17 15 14 16 12 12
31 28 13 7 16 23 25 24 23 24 24 26 26 28 29 27 26 25 25 26 25 19 23 23 23 23 14 18 15 16 12 10
32 25 19 15 15 14 17 18 22 25 26 26 28 25 23 22 24 25 26 23 25 26 16 22 22 19 17 15 16 14 11 11
33 19 12 17 18 18 19 20 24 25 26 24 22 23 24 24 22 22 23 24 23 27 24 20 19 16 22 19 18 12 10 10
28 29 17 20 20 23 26 24 20 22 23 24 25 25 25 25 25 26 25 26 26 24 22 24 23 20 22 19 17 12 9 8
30 25 20 21 23 22 19 23 27 27 25 23 24 24 25 25 28 27 27 26 26 25 22 19 18 17 19 16 14 13 9 8
Wind_Direction
211 205 205 199 195 191 190 188 191 189 184 178 177 178 193 199 202 200 189 184 180 175 174 169 158 144 146 150 120 78 99 68
212 210 197 201 199 192 190 188 186 179 178 180 189 191 188 192 188 183 179 183 176 175 167 162 156 153 156 142 121 119 60 37
226 228 184 196 195 194 192 191 184 186 186 188 192 190 183 180 176 177 179 182 174 173 166 161 154 145 145 144 145 132 106 35
231 223 198 193 194 192 191 191 189 189 187 178 155 146 148 170 184 182 184 180 177 171 165 158 158 153 152 146 148 150 145 61
242 235 213 193 195 194 195 190 188 188 182 183 183 184 187 197 185 173 173 177 177 168 165 160 161 152 147 146 146 143 137 151
247 236 227 198 195 194 196 190 189 185 182 186 185 188 191 175 171 167 172 174 173 168 162 158 155 151 148 147 142 139 134 147
253 246 236 212 195 191 190 188 191 189 184 186 188 185 179 167 172 171 173 166 168 165 162 155 152 149 151 152 146 141 142 144
267 266 256 221 197 190 188 190 192 187 188 190 189 187 179 177 173 171 166 165 169 172 161 158 156 153 151 147 144 145 152 157
272 262 264 228 206 190 188 192 191 187 188 191 190 185 180 180 174 170 171 172 169 171 162 159 157 152 151 148 146 145 146 145
291 285 274 251 214 195 191 191 191 188 189 185 183 179 178 180 175 167 166 162 161 167 162 159 157 154 151 148 148 145 145 147
305 293 277 262 225 202 192 188 186 189 188 184 177 180 180 175 170 175 172 166 163 164 162 160 158 154 149 144 141 143 139 142
301 303 281 254 222 196 188 185 187 187 187 176 179 182 178 175 178 175 175 168 163 163 161 158 154 150 146 141 136 146 143 133
310 313 283 227 190 183 181 183 184 187 184 178 181 172 171 173 179 180 175 174 168 162 156 152 149 147 145 139 140 146 137 131
302 317 294 208 176 175 177 177 183 183 181 174 172 171 172 175 178 177 175 169 168 165 155 149 145 141 138 126 128 129 128 130
299 296 257 252 180 176 175 176 176 168 163 164 170 173 176 176 173 171 173 169 154 157 142 134 134 128 129 124 141 124 123 122
289 289 249 210 191 179 169 165 165 164 167 171 175 171 169 164 162 160 155 153 145 127 123 124 123 126 127 142 126 117 132 130
287 275 224 212 208 194 181 177 175 169 169 171 165 159 159 158 154 146 142 137 136 131 131 131 126 116 141 132 115 133 166 154
289 294 274 243 214 197 191 183 169 170 171 166 166 166 161 155 146 143 140 135 131 127 128 127 135 133 131 130 127 163 153 157
310 292 279 264 238 208 189 174 175 175 174 169 164 161 159 154 152 145 139 135 133 132 128 127 130 123 125 122 164 140 160 145